This demonstration page uses our WeatherBlox Daily Observations layout. Learn more.

Left ArrowRight Arrow

39.01783, -85.05884

Hourly Observations for March 10, 2018

Temp ( °F °C ) Dew Point ( °F °C ) Humidity (%) Winds ( mph kmh ) Pressure ( in mb ) Visibility ( mi km ) Precip ( " mm )
12:52 am 00:52 Cloudy 36 2.2 23 -5 59 59 E 9 15 29.97 1015 10 16 N/A
1:52 am 01:52 Cloudy 35 1.7 22 -5.6 59 59 ESE 5 7 29.99 1016 10 16 N/A
2:52 am 02:52 Cloudy 36 2.2 22 -5.6 57 57 ENE 7 11 29.98 1015 10 16 N/A
3:52 am 03:52 Cloudy 34 1.1 24 -4.4 67 67 E 7 11 29.98 1015 10 16 N/A
4:52 am 04:52 Cloudy 33 0.6 23 -5 66 66 ENE 9 15 29.99 1016 10 16 N/A
5:40 am 05:40 Cloudy 33 0.6 23 -5 66 66 ENE 8 13 30.00 1016 10 16 N/A
5:52 am 05:52 Cloudy 33 0.6 23 -5 66 66 ENE 9 15 29.99 1016 10 16 N/A
6:14 am 06:14 Cloudy 33 0.6 23 -5 66 66 ENE 8 13 30.03 1017 10 16 N/A
6:52 am 06:52 Cloudy 33 0.6 23 -5 66 66 E 8 13 30.01 1016 10 16 N/A
7:52 am 07:52 Cloudy 33 0.6 24 -4.4 70 70 E 6 9 30.02 1017 10 16 N/A
8:52 am 08:52 Cloudy 35 1.7 24 -4.4 64 64 ENE 9 15 30.02 1017 10 16 N/A
9:52 am 09:52 Mostly Cloudy 37 2.8 25 -3.9 62 62 NE 7 11 30.04 1017 10 16 N/A
10:52 am 10:52 Partly Cloudy 40 4.4 29 -1.7 65 65 E 8 13 30.04 1017 9 14 N/A
11:52 am 11:52 Mostly Sunny 43 6.1 27 -2.8 53 53 ENE 7 11 30.03 1017 10 16 N/A
12:52 pm 12:52 Mostly Sunny 45 7.2 25 -3.9 46 46 NE 5 7 30.01 1016 10 16 N/A
1:52 pm 13:52 Mostly Sunny 47 8.3 23 -5 39 39 ENE 7 11 29.98 1015 10 16 N/A
2:52 pm 14:52 Partly Cloudy 49 9.4 23 -5 36 36 NE 6 9 29.98 1015 10 16 N/A
3:52 pm 15:52 Partly Cloudy 50 10 23 -5 35 35 NE 9 15 29.98 1015 10 16 N/A
4:52 pm 16:52 Partly Cloudy 49 9.4 21 -6.1 33 33 NNE 6 9 29.99 1016 10 16 N/A
5:52 pm 17:52 Mostly Cloudy 47 8.3 21 -6.1 36 36 NE 8 13 30.01 1016 10 16 N/A
6:52 pm 18:52 Mostly Cloudy 45 7.2 21 -6.1 39 39 NE 7 11 30.02 1017 10 16 N/A
7:52 pm 19:52 Mostly Cloudy 43 6.1 20 -6.7 40 40 NNE 9 15 30.04 1017 10 16 N/A
8:52 pm 20:52 Mostly Cloudy 41 5 21 -6.1 45 45 NNE 9 15 30.04 1017 10 16 N/A
9:52 pm 21:52 Mostly Cloudy 40 4.4 21 -6.1 47 47 NE 13 20 30.05 1018 10 16 N/A
10:52 pm 22:52 Mostly Cloudy 38 3.3 21 -6.1 51 51 ENE 12 19 30.06 1018 10 16 N/A
11:52 pm 23:52 Mostly Cloudy 37 2.8 22 -5.6 54 54 NE 13 20 30.07 1018 10 16 N/A

Powered by AerisWeather